Fergus Falls, MN

3:31 AM CST on December 07, 2019 (GMT -0600)
Fergus Falls Municipal-Mickelson

Weather History for KFFM - October, 2019

Change the Weather History Date:

Friday, October 25, 2019

  Actual Average Record
Temperature  
Mean Temperature 42 °F -  
Max Temperature 57 °F 54 °F 77 °F (1989)
Min Temperature 28 °F 32 °F 17 °F (1957)
Degree Days  
Heating Degree Days 22    
Moisture  
Dew Point 31 °F    
Average Humidity 71    
Maximum Humidity 100    
Minimum Humidity 41    
Precipitation  
Precipitation 0.00 in - - ()
Sea Level Pressure  
Sea Level Pressure 30.05 in    
Wind  
Wind Speed 8 mph ()    
Max Wind Speed 16 mph    
Max Gust Speed 24 mph    
Visibility 10.0 miles    
Events      
Averages and records for this station are not official NWS values.
T = Trace of Precipitation, MM = Missing Value Source: Averaged Metar Reports

Daily Weather History Graph

Daily Weather History Graph

Search for Another Location

Airport or City:

Astronomy

Oct. 25, 2019 Rise Set
Actual Time 7:55 AM CDT 6:21 PM CDT
Civil Twilight 7:24 AM CDT 6:52 PM CDT
Nautical Twilight 6:49 AM CDT 7:27 PM CDT
Astronomical Twilight 6:14 AM CDT 8:01 PM CDT
Moon 4:23 AM CDT (10/25) 5:37 PM CDT (10/25)
Length of Visible Light 11h 27m
Length of Day
10h 25m
Waning Crescent, 9% of the Moon is Illuminated
Oct 25
Waning Crescent
Oct 27
New
Nov 4
First Quarter
Nov 12
Full
Nov 19
Last Quarter

Hourly Weather History & Observations

Time (CDT) Temp. Windchill Dew Point Humidity Pressure Visibility Wind Dir Wind Speed Gust Speed Precip Events Conditions
12:15 AM 30.2 °F 22.6 °F 26.6 °F 86% 30.26 in 10.0 mi SSE 8.1 mph - N/A   Clear
12:20 AM 30.2 °F 22.6 °F 26.6 °F 86% 30.26 in 10.0 mi SSE 8.1 mph - N/A   Clear
12:37 AM 30.2 °F 23.4 °F 26.6 °F 86% 30.25 in 10.0 mi South 6.9 mph - N/A   Clear
12:55 AM 30.2 °F 23.4 °F 26.6 °F 86% 30.24 in 10.0 mi SSE 6.9 mph - N/A   Clear
1:15 AM 30.2 °F 24.3 °F 26.6 °F 86% 30.24 in 10.0 mi South 5.8 mph - N/A   Mostly Cloudy
1:16 AM 30.2 °F 24.3 °F 26.6 °F 86% 30.24 in 10.0 mi South 5.8 mph - N/A   Mostly Cloudy
1:35 AM 32.0 °F 26.4 °F 26.6 °F 80% 30.24 in 10.0 mi SSE 5.8 mph - N/A   Overcast
1:36 AM 32.0 °F 26.4 °F 26.6 °F 80% 30.24 in 10.0 mi SSE 5.8 mph - N/A   Overcast
1:59 AM 32.0 °F 25.6 °F 26.6 °F 80% 30.22 in 10.0 mi South 6.9 mph - N/A   Mostly Cloudy
2:16 AM 30.2 °F 23.4 °F 26.6 °F 86% 30.22 in 10.0 mi South 6.9 mph - N/A   Scattered Clouds
2:36 AM 30.2 °F 24.3 °F 26.6 °F 86% 30.22 in 10.0 mi South 5.8 mph - N/A   Clear
2:55 AM 30.2 °F 24.3 °F 26.6 °F 86% 30.22 in 10.0 mi South 5.8 mph - N/A   Clear
3:15 AM 30.2 °F 24.3 °F 26.6 °F 86% 30.21 in 10.0 mi SSE 5.8 mph - N/A   Clear
3:19 AM 30.2 °F 23.4 °F 26.6 °F 86% 30.21 in 10.0 mi SSE 6.9 mph - N/A   Clear
3:38 AM 30.2 °F 24.3 °F 26.6 °F 86% 30.20 in 10.0 mi South 5.8 mph - N/A   Clear
3:55 AM 28.4 °F 22.2 °F 26.6 °F 93% 30.20 in 10.0 mi South 5.8 mph - N/A   Clear
4:15 AM 28.4 °F 21.2 °F 26.6 °F 93% 30.20 in 10.0 mi South 6.9 mph - N/A   Clear
4:16 AM 28.4 °F 21.2 °F 26.6 °F 93% 30.19 in 10.0 mi South 6.9 mph - N/A   Clear
4:35 AM 30.2 °F 23.4 °F 26.6 °F 86% 30.19 in 10.0 mi South 6.9 mph - N/A   Clear
4:58 AM 30.2 °F 23.4 °F 26.6 °F 86% 30.18 in 10.0 mi South 6.9 mph - N/A   Clear
5:17 AM 28.4 °F 22.2 °F 26.6 °F 93% 30.18 in 10.0 mi South 5.8 mph - N/A   Clear
5:36 AM 28.4 °F 22.2 °F 26.6 °F 93% 30.18 in 10.0 mi SSE 5.8 mph - N/A   Clear
5:55 AM 28.4 °F 21.2 °F 26.6 °F 93% 30.17 in 10.0 mi SSE 6.9 mph - N/A   Clear
5:56 AM 30.2 °F 23.4 °F 26.6 °F 86% 30.17 in 10.0 mi SSE 6.9 mph - N/A   Clear
6:15 AM 30.2 °F 23.4 °F 28.4 °F 93% 30.17 in 10.0 mi SSE 6.9 mph - N/A   Clear
6:20 AM 30.2 °F 23.4 °F 28.4 °F 93% 30.17 in 10.0 mi SSE 6.9 mph - N/A   Clear
6:37 AM 28.4 °F 21.2 °F 26.6 °F 93% 30.16 in 10.0 mi SSE 6.9 mph - N/A   Clear
6:55 AM 28.4 °F 20.4 °F 28.4 °F 100% 30.15 in 10.0 mi SSE 8.1 mph - N/A   Clear
7:15 AM 30.2 °F 22.6 °F 28.4 °F 93% 30.15 in 10.0 mi SSE 8.1 mph - N/A   Clear
7:16 AM 30.2 °F 23.4 °F 28.4 °F 93% 30.15 in 10.0 mi SSE 6.9 mph - N/A   Clear
7:35 AM 30.2 °F 21.3 °F 28.4 °F 93% 30.14 in 10.0 mi SSE 10.4 mph - N/A   Clear
7:36 AM 30.2 °F 21.9 °F 28.4 °F 93% 30.14 in 10.0 mi SSE 9.2 mph - N/A   Clear
7:59 AM 30.2 °F 22.6 °F 28.4 °F 93% 30.14 in 10.0 mi SSE 8.1 mph - N/A   Clear
8:16 AM 30.2 °F 22.6 °F 28.4 °F 93% 30.14 in 10.0 mi SSE 8.1 mph - N/A   Clear
8:36 AM 32.0 °F 24.2 °F 28.4 °F 87% 30.13 in 10.0 mi SSE 9.2 mph - N/A   Clear
8:55 AM 33.8 °F 27.7 °F 30.2 °F 87% 30.13 in 10.0 mi South 6.9 mph - N/A   Clear
8:56 AM 33.8 °F 27.7 °F 30.2 °F 87% 30.13 in 10.0 mi South 6.9 mph - N/A   Clear
9:15 AM 33.8 °F 26.4 °F 30.2 °F 87% 30.13 in 10.0 mi South 9.2 mph - N/A   Clear
9:19 AM 33.8 °F 27.0 °F 30.2 °F 87% 30.12 in 10.0 mi South 8.1 mph - N/A   Clear
9:55 AM 35.6 °F 28.6 °F 30.2 °F 81% 30.12 in 10.0 mi South 9.2 mph - N/A   Clear
10:15 AM 37.4 °F 30.3 °F 32.0 °F 81% 30.12 in 10.0 mi South 10.4 mph - N/A   Clear
10:16 AM 37.4 °F 29.8 °F 32.0 °F 81% 30.12 in 10.0 mi South 11.5 mph - N/A   Clear
10:35 AM 39.2 °F 32.0 °F 32.0 °F 75% 30.10 in 10.0 mi South 11.5 mph - N/A   Clear
10:36 AM 39.2 °F 32.0 °F 32.0 °F 75% 30.10 in 10.0 mi South 11.5 mph - N/A   Clear
10:58 AM 41.0 °F 34.3 °F 32.0 °F 70% 30.09 in 10.0 mi South 11.5 mph - N/A   Clear
11:17 AM 42.8 °F 36.6 °F 32.0 °F 66% 30.08 in 10.0 mi South 11.5 mph - N/A   Clear
11:36 AM 44.6 °F 38.8 °F 33.8 °F 66% 30.07 in 10.0 mi South 11.5 mph - N/A   Clear
11:56 AM 46.4 °F 40.7 °F 33.8 °F 62% 30.06 in 10.0 mi South 12.7 mph - N/A   Clear
12:15 PM 46.4 °F 40.4 °F 33.8 °F 62% 30.06 in 10.0 mi South 13.8 mph - N/A   Clear
12:19 PM 46.4 °F 40.7 °F 33.8 °F 62% 30.06 in 10.0 mi South 12.7 mph - N/A   Clear
12:37 PM 48.2 °F - 33.8 °F 58% 30.05 in 10.0 mi South 13.8 mph - N/A   Clear
12:56 PM 51.8 °F - 35.6 °F 54% 30.05 in 10.0 mi SSW 10.4 mph - N/A   Clear
1:15 PM 51.8 °F - 33.8 °F 50% 30.03 in 10.0 mi SSW 13.8 mph 18.4 mph N/A   Clear
1:16 PM 51.8 °F - 33.8 °F 50% 30.03 in 10.0 mi SSW 13.8 mph 18.4 mph N/A   Clear
1:35 PM 51.8 °F - 35.6 °F 54% 30.02 in 10.0 mi SW 13.8 mph 19.6 mph N/A   Clear
1:57 PM 53.6 °F - 35.6 °F 51% 30.00 in 10.0 mi SSW 13.8 mph 18.4 mph N/A   Clear
2:16 PM 53.6 °F - 35.6 °F 51% 29.99 in 10.0 mi SSW 11.5 mph 18.4 mph N/A   Clear
2:35 PM 55.4 °F - 33.8 °F 44% 29.98 in 10.0 mi SW 13.8 mph - N/A   Clear
2:36 PM 55.4 °F - 33.8 °F 44% 29.98 in 10.0 mi SW 13.8 mph - N/A   Clear
3:16 PM 55.4 °F - 35.6 °F 47% 29.96 in 10.0 mi SW 13.8 mph - N/A   Clear
3:35 PM 57.2 °F - 33.8 °F 41% 29.95 in 10.0 mi WSW 13.8 mph 18.4 mph N/A   Clear
3:36 PM 57.2 °F - 33.8 °F 41% 29.95 in 10.0 mi SW 12.7 mph 18.4 mph N/A   Clear
3:55 PM 57.2 °F - 33.8 °F 41% 29.94 in 10.0 mi SW 13.8 mph - N/A   Clear
3:56 PM 57.2 °F - 33.8 °F 41% 29.94 in 10.0 mi SW 13.8 mph - N/A   Clear
4:15 PM 57.2 °F - 33.8 °F 41% 29.94 in 10.0 mi SW 15.0 mph - N/A   Clear
4:19 PM 57.2 °F - 33.8 °F 41% 29.94 in 10.0 mi SW 12.7 mph - N/A   Clear
4:38 PM 57.2 °F - 33.8 °F 41% 29.93 in 10.0 mi SW 13.8 mph - N/A   Clear
4:55 PM 57.2 °F - 33.8 °F 41% 29.92 in 10.0 mi SW 13.8 mph - N/A   Clear
5:15 PM 55.4 °F - 33.8 °F 44% 29.92 in 10.0 mi SSW 10.4 mph - N/A   Clear
5:16 PM 55.4 °F - 33.8 °F 44% 29.92 in 10.0 mi SSW 9.2 mph - N/A   Clear
5:35 PM 55.4 °F - 35.6 °F 47% 29.91 in 10.0 mi SSW 8.1 mph - N/A   Clear
5:36 PM 55.4 °F - 35.6 °F 47% 29.91 in 10.0 mi SSW 8.1 mph - N/A   Clear
5:59 PM 51.8 °F - 35.6 °F 54% 29.91 in 10.0 mi South 8.1 mph - N/A   Clear
6:17 PM 50.0 °F - 35.6 °F 58% 29.91 in 10.0 mi South 8.1 mph - N/A   Clear
6:36 PM 46.4 °F 42.4 °F 35.6 °F 66% 29.91 in 10.0 mi South 8.1 mph - N/A   Clear
6:55 PM 44.6 °F 40.2 °F 33.8 °F 66% 29.92 in 10.0 mi South 8.1 mph - N/A   Clear
6:56 PM 44.6 °F 40.2 °F 33.8 °F 66% 29.92 in 10.0 mi South 8.1 mph - N/A   Clear
7:15 PM 44.6 °F 39.7 °F 33.8 °F 66% 29.91 in 10.0 mi South 9.2 mph - N/A   Clear
7:19 PM 44.6 °F 40.2 °F 35.6 °F 71% 29.91 in 10.0 mi South 8.1 mph - N/A   Clear
7:37 PM 44.6 °F 39.7 °F 33.8 °F 66% 29.91 in 10.0 mi South 9.2 mph - N/A   Clear
7:56 PM 44.6 °F 40.2 °F 35.6 °F 71% 29.91 in 10.0 mi South 8.1 mph - N/A   Clear
8:15 PM 42.8 °F 38.0 °F 33.8 °F 70% 29.90 in 10.0 mi South 8.1 mph - N/A   Clear
8:16 PM 42.8 °F 38.0 °F 33.8 °F 70% 29.90 in 10.0 mi South 8.1 mph - N/A   Clear
8:35 PM 44.6 °F 39.7 °F 35.6 °F 71% 29.89 in 10.0 mi South 9.2 mph - N/A   Clear
8:59 PM 44.6 °F 38.8 °F 35.6 °F 71% 29.89 in 10.0 mi South 11.5 mph - N/A   Clear
9:17 PM 44.6 °F 39.2 °F 35.6 °F 71% 29.88 in 10.0 mi South 10.4 mph - N/A   Clear
9:36 PM 44.6 °F 38.8 °F 35.6 °F 71% 29.88 in 10.0 mi South 11.5 mph - N/A   Clear
9:55 PM 44.6 °F 38.1 °F 35.6 °F 71% 29.87 in 10.0 mi South 13.8 mph - N/A   Clear
9:56 PM 46.4 °F 40.4 °F 35.6 °F 66% 29.87 in 10.0 mi South 13.8 mph - N/A   Clear
10:15 PM 46.4 °F 40.1 °F 35.6 °F 66% 29.86 in 10.0 mi South 15.0 mph 20.7 mph N/A   Clear
10:20 PM 46.4 °F 39.8 °F 35.6 °F 66% 29.86 in 10.0 mi South 16.1 mph 20.7 mph N/A   Clear
10:37 PM 46.4 °F 40.4 °F 33.8 °F 62% 29.86 in 10.0 mi South 13.8 mph 19.6 mph N/A   Clear
10:55 PM 44.6 °F 38.1 °F 33.8 °F 66% 29.85 in 10.0 mi South 13.8 mph 20.7 mph N/A   Clear
11:15 PM 44.6 °F 38.4 °F 33.8 °F 66% 29.85 in 10.0 mi South 12.7 mph - N/A   Clear
11:16 PM 44.6 °F 38.4 °F 33.8 °F 66% 29.85 in 10.0 mi South 12.7 mph - N/A   Clear
11:35 PM 46.4 °F 40.4 °F 33.8 °F 62% 29.85 in 10.0 mi South 13.8 mph 24.2 mph N/A   Clear
11:40 PM 44.6 °F 38.1 °F 33.8 °F 66% 29.84 in 10.0 mi South 13.8 mph 19.6 mph N/A   Clear
11:57 PM 44.6 °F 38.4 °F 33.8 °F 66% 29.84 in 10.0 mi South 12.7 mph - N/A   Clear